📊 Raw Sensor Data
Showing records 46701 to 46725 of 85,074 total
| ID | Distance (ft) | Battery V | Battery A | Int Temp (°F) | Int Humid (%) | Ext Temp (°F) | Solar V | RSSI | SNR | Time Stamp |
|---|---|---|---|---|---|---|---|---|---|---|
| 38386 | -- | 3.96 | -5 | 57 | 44 | 58 | 0.00 | -83 | 7 | 04/20/2025 10:00 PM |
| 38385 | -- | 3.96 | -5 | 58 | 45 | 59 | 0.00 | -84 | 7 | 04/20/2025 09:45 PM |
| 38384 | -- | 3.96 | -5 | 59 | 45 | 60 | 0.00 | -84 | 8 | 04/20/2025 09:30 PM |
| 38383 | -- | 3.96 | -5 | 60 | 46 | 61 | 0.10 | -82 | 8 | 04/20/2025 09:16 PM |
| 38382 | -- | 3.96 | -5 | 61 | 47 | 62 | 0.00 | -82 | 8 | 04/20/2025 09:00 PM |
| 38381 | -- | 3.96 | -5 | 62 | 48 | 63 | 0.00 | -86 | 8 | 04/20/2025 08:45 PM |
| 38380 | -- | 3.96 | -5 | 63 | 49 | 64 | 0.00 | -83 | 8 | 04/20/2025 08:30 PM |
| 38379 | -- | 3.90 | -5 | 65 | 51 | 65 | 0.00 | -86 | 7 | 04/20/2025 08:15 PM |
| 38378 | -- | 3.91 | -5 | 67 | 53 | 66 | 0.80 | -81 | 8 | 04/20/2025 08:00 PM |
| 38377 | -- | 3.90 | -16 | 72 | 52 | 68 | 4.20 | -84 | 7 | 04/20/2025 07:45 PM |
| 38376 | -- | 3.98 | 0 | 77 | 51 | 72 | 4.50 | -90 | 8 | 04/20/2025 07:30 PM |
| 38375 | -- | 3.99 | 5 | 81 | 50 | 76 | 4.50 | -86 | 7 | 04/20/2025 07:15 PM |
| 38374 | -- | 3.95 | -17 | 83 | 49 | 78 | 4.50 | -81 | 7 | 04/20/2025 07:00 PM |
| 38373 | -- | 3.98 | 0 | 86 | 48 | 77 | 4.50 | -82 | 8 | 04/20/2025 06:45 PM |
| 38372 | -- | 4.03 | 31 | 88 | 47 | 81 | 4.50 | -85 | 8 | 04/20/2025 06:30 PM |
| 38371 | -- | 3.95 | 5 | 88 | 47 | 80 | 5.10 | -85 | 8 | 04/20/2025 06:15 PM |
| 38370 | -- | 3.95 | 7 | 90 | 45 | 82 | 5.10 | -84 | 8 | 04/20/2025 06:00 PM |
| 38369 | -- | 3.95 | 7 | 91 | 45 | 81 | 5.10 | -84 | 9 | 04/20/2025 05:45 PM |
| 38368 | -- | 3.95 | 0 | 92 | 44 | 81 | 5.10 | -86 | 7 | 04/20/2025 05:30 PM |
| 38367 | -- | 3.98 | 7 | 92 | 43 | 81 | 5.10 | -87 | 9 | 04/20/2025 05:15 PM |
| 38366 | -- | 4.06 | 7 | 93 | 42 | 86 | 5.10 | -85 | 9 | 04/20/2025 05:00 PM |
| 38365 | -- | 3.95 | 7 | 91 | 43 | 78 | 5.10 | -86 | 7 | 04/20/2025 04:45 PM |
| 38364 | -- | 3.99 | 7 | 91 | 42 | 80 | 5.10 | -87 | 8 | 04/20/2025 04:30 PM |
| 38363 | -- | 3.95 | 7 | 93 | 41 | 83 | 5.10 | -85 | 8 | 04/20/2025 04:15 PM |
| 38362 | -- | 3.95 | 7 | 92 | 40 | 84 | 5.10 | -85 | 8 | 04/20/2025 04:00 PM |